2024/03/17 00:00:00,36.2, 2.2
2024/03/17 00:10:00,36.4, 2.5
2024/03/17 00:20:00,36.4, 2.1
2024/03/17 00:30:00,36.3, 2.3
2024/03/17 00:40:00,36.3, 2.4
2024/03/17 00:50:00,36.1, 2.3
2024/03/17 01:00:00,35.9, 2.5
2024/03/17 01:10:00,35.8, 2.4
2024/03/17 01:20:00,35.9, 2.4
2024/03/17 01:30:00,36.0, 2.1
2024/03/17 01:40:00,35.9, 2.0
2024/03/17 01:50:00,35.9, 2.1
2024/03/17 02:00:00,36.0, 2.3
2024/03/17 02:10:00,36.0, 2.5
2024/03/17 02:20:00,35.9, 2.1
2024/03/17 02:30:00,35.8, 2.1
2024/03/17 02:40:00,35.9, 2.4
2024/03/17 02:50:00,35.9, 2.3
2024/03/17 03:00:00,35.9, 2.5
2024/03/17 03:10:00,36.0, 2.5
2024/03/17 03:20:00,35.8, 2.4
2024/03/17 03:30:00,35.8, 2.1
2024/03/17 03:40:00,35.8, 2.4
2024/03/17 03:50:00,35.6, 2.3
2024/03/17 04:00:00,35.9, 2.3
2024/03/17 04:10:00,35.9, 2.5
2024/03/17 04:20:00,35.7, 1.8
2024/03/17 04:30:00,35.8, 2.5
2024/03/17 04:40:00,36.0, 2.3
2024/03/17 04:50:00,35.9, 2.3
2024/03/17 05:00:00,35.8, 2.4
2024/03/17 05:10:00,35.9, 2.0
2024/03/17 05:20:00,35.8, 2.2
2024/03/17 05:30:00,35.7, 2.1
2024/03/17 05:40:00,35.6, 2.2
2024/03/17 05:50:00,35.6, 2.2
2024/03/17 06:00:00,35.5, 2.4
2024/03/17 06:10:00,35.5, 2.4
2024/03/17 06:20:00,35.5, 2.3
2024/03/17 06:30:00,35.6, 2.5
2024/03/17 06:40:00,35.5, 2.4
2024/03/17 06:50:00,35.3, 2.4
2024/03/17 07:00:00,34.9, 2.5
2024/03/17 07:10:00,34.9, 3.0
2024/03/17 07:20:00,34.8, 3.2
2024/03/17 07:30:00,35.4, 3.6
2024/03/17 07:40:00,35.2, 3.7
2024/03/17 07:50:00,35.1, 4.5
2024/03/17 08:00:00,34.9, 5.0
2024/03/17 08:10:00,34.8, 4.7
2024/03/17 08:20:00,34.9, 4.7
2024/03/17 08:30:00,34.6, 4.7
2024/03/17 08:40:00,34.2, 5.0
2024/03/17 08:50:00,34.0, 5.1
2024/03/17 09:00:00,34.0, 6.0
2024/03/17 09:10:00,34.3, 7.2
2024/03/17 09:20:00,34.6, 8.3
2024/03/17 09:30:00,34.3, 7.7
2024/03/17 09:40:00,34.1, 7.0
2024/03/17 09:50:00,33.9, 7.1
2024/03/17 10:00:00,33.7, 7.1
2024/03/17 10:10:00,33.8, 6.9
2024/03/17 10:20:00,33.8, 7.6
2024/03/17 10:30:00,33.7, 6.9
2024/03/17 10:40:00,33.9, 7.1
2024/03/17 10:50:00,34.0, 6.6
2024/03/17 11:00:00,34.0, 6.4
2024/03/17 11:10:00,33.9, 7.0
2024/03/17 11:20:00,33.7, 7.5
2024/03/17 11:30:00,33.7, 8.6
2024/03/17 11:40:00,33.7, 8.7
2024/03/17 11:50:00,33.7,10.2
2024/03/17 12:00:00,33.7, 9.9
2024/03/17 12:10:00,33.7, 8.9
2024/03/17 12:20:00,33.8, 8.9
2024/03/17 12:30:00,33.8, 9.4
2024/03/17 12:40:00,33.6, 8.7
2024/03/17 12:50:00,33.4, 8.1
2024/03/17 13:00:00,33.2, 8.2
2024/03/17 13:10:00,32.8, 7.1
2024/03/17 13:20:00,32.7, 6.9
2024/03/17 13:30:00,32.6, 7.5
2024/03/17 13:40:00,32.6, 7.4
2024/03/17 13:50:00,32.6, 7.9
2024/03/17 14:00:00,32.6, 8.6
2024/03/17 14:10:00,32.6, 9.3
2024/03/17 14:20:00,32.2, 7.6
2024/03/17 14:30:00,31.6, 7.8
2024/03/17 14:40:00,31.5, 7.0
2024/03/17 14:50:00,31.6, 6.6
2024/03/17 15:00:00,31.6, 6.0
2024/03/17 15:10:00,31.7, 6.3
2024/03/17 15:20:00,31.7, 5.9
2024/03/17 15:30:00,31.6, 6.2
2024/03/17 15:40:00,31.4, 5.9
2024/03/17 15:50:00,31.5, 5.7
2024/03/17 16:00:00,31.6, 5.3
2024/03/17 16:10:00,31.5, 5.5
2024/03/17 16:20:00,31.4, 5.8
2024/03/17 16:30:00,31.6, 5.7
2024/03/17 16:40:00,31.8, 5.7
2024/03/17 16:50:00,32.0, 5.4
2024/03/17 17:00:00,32.1, 5.0
2024/03/17 17:10:00,31.7, 5.3
2024/03/17 17:20:00,31.8, 5.1
2024/03/17 17:30:00,31.8, 5.0
2024/03/17 17:40:00,32.0, 4.6
2024/03/17 17:50:00,32.0, 4.3
2024/03/17 18:00:00,31.9, 4.2
2024/03/17 18:10:00,32.1, 4.3
2024/03/17 18:20:00,32.0, 3.8
2024/03/17 18:30:00,31.7, 4.0
2024/03/17 18:40:00,31.6, 3.8
2024/03/17 18:50:00,31.6, 3.9
2024/03/17 19:00:00,31.5, 4.1
2024/03/17 19:10:00,31.5, 4.1
2024/03/17 19:20:00,31.4, 3.8
2024/03/17 19:30:00,31.3, 3.9
2024/03/17 19:40:00,31.4, 4.3
2024/03/17 19:50:00,31.4, 4.1
2024/03/17 20:00:00,31.2, 3.9
2024/03/17 20:10:00,31.6, 3.6
2024/03/17 20:20:00,31.3, 3.5
2024/03/17 20:30:00,31.4, 3.2
2024/03/17 20:40:00,31.2, 3.2
2024/03/17 20:50:00,31.1, 2.9
2024/03/17 21:00:00,31.0, 2.7
2024/03/17 21:10:00,30.9, 2.9
2024/03/17 21:20:00,31.0, 2.6
2024/03/17 21:30:00,31.1, 2.3
2024/03/17 21:40:00,31.1, 2.3
2024/03/17 21:50:00,31.2, 2.1
2024/03/17 22:00:00,31.3, 1.8
2024/03/17 22:10:00,31.3, 1.8
2024/03/17 22:20:00,31.4, 1.4
2024/03/17 22:30:00,30.9, 1.6
2024/03/17 22:40:00,30.9, 1.3
2024/03/17 22:50:00,30.9, 1.3
2024/03/17 23:00:00,31.0, 1.1
2024/03/17 23:10:00,30.7, 1.2
2024/03/17 23:20:00,30.6, 1.2
2024/03/17 23:30:00,30.8, 0.8
2024/03/17 23:40:00,30.9, 1.0
2024/03/17 23:50:00,30.8, 0.9
